TimeEST,TemperatureF,Dew PointF,Humidity,Sea Level PressureIn,VisibilityMPH,Wind Direction,Wind SpeedMPH,Gust SpeedMPH,PrecipitationIn,Events,Conditions,WindDirDegrees,DateUTC
12:51 AM,32.0,19.9,61,29.85,10.0,NW,21.9,38.0,N/A,,Scattered Clouds,320,2012-12-28 05:51:00
1:51 AM,32.0,19.0,59,29.87,10.0,NW,20.7,27.6,N/A,,Scattered Clouds,310,2012-12-28 06:51:00
2:51 AM,32.0,19.0,59,29.91,10.0,WNW,19.6,29.9,N/A,,Clear,300,2012-12-28 07:51:00
3:51 AM,32.0,19.9,61,29.93,10.0,WNW,16.1,27.6,N/A,,Scattered Clouds,300,2012-12-28 08:51:00
4:51 AM,32.0,19.9,61,29.94,10.0,NW,17.3,23.0,N/A,,Scattered Clouds,310,2012-12-28 09:51:00
5:51 AM,32.0,21.0,64,29.98,10.0,NW,12.7,-,N/A,,Mostly Cloudy,310,2012-12-28 10:51:00
6:51 AM,32.0,21.0,64,30.00,10.0,NW,15.0,20.7,N/A,,Mostly Cloudy,310,2012-12-28 11:51:00
7:51 AM,32.0,21.9,66,30.01,10.0,NW,15.0,-,N/A,,Mostly Cloudy,310,2012-12-28 12:51:00
8:51 AM,33.1,21.9,64,30.03,10.0,NW,20.7,27.6,N/A,,Scattered Clouds,310,2012-12-28 13:51:00
9:51 AM,34.0,21.9,61,30.05,10.0,NW,16.1,26.5,N/A,,Mostly Cloudy,310,2012-12-28 14:51:00
10:51 AM,35.1,21.9,59,30.04,10.0,NW,18.4,25.3,N/A,,Scattered Clouds,320,2012-12-28 15:51:00
11:51 AM,36.0,23.0,59,30.02,10.0,NW,17.3,-,N/A,,Scattered Clouds,320,2012-12-28 16:51:00
12:51 PM,37.9,24.1,57,30.01,10.0,NW,11.5,-,N/A,,Scattered Clouds,310,2012-12-28 17:51:00
1:51 PM,37.0,21.9,54,30.01,10.0,WNW,15.0,-,N/A,,Scattered Clouds,290,2012-12-28 18:51:00
2:51 PM,37.9,23.0,55,30.03,10.0,WNW,11.5,-,N/A,,Scattered Clouds,300,2012-12-28 19:51:00
3:51 PM,37.0,23.0,57,30.04,10.0,NW,13.8,-,N/A,,Scattered Clouds,310,2012-12-28 20:51:00
4:51 PM,36.0,23.0,59,30.04,10.0,NW,13.8,-,N/A,,Scattered Clouds,310,2012-12-28 21:51:00
5:51 PM,35.1,23.0,61,30.06,10.0,NW,13.8,-,N/A,,Scattered Clouds,320,2012-12-28 22:51:00
6:51 PM,33.8,23.0,65,30.06,10.0,NNW,9.2,-,N/A,,Mostly Cloudy,330,2012-12-28 23:51:00
7:51 PM,33.8,23.0,65,30.06,10.0,NNW,12.7,-,N/A,,Scattered Clouds,340,2012-12-29 00:51:00
8:51 PM,33.1,23.0,66,30.08,10.0,NNW,8.1,-,N/A,,Scattered Clouds,330,2012-12-29 01:51:00
9:51 PM,33.1,23.0,66,30.07,10.0,North,9.2,-,N/A,,Scattered Clouds,360,2012-12-29 02:51:00
10:51 PM,33.1,23.0,66,30.07,10.0,North,5.8,-,N/A,,Partly Cloudy,350,2012-12-29 03:51:00
11:51 PM,32.0,23.0,69,30.06,10.0,Calm,Calm,-,N/A,,Scattered Clouds,0,2012-12-29 04:51:00